When you browse on this site, cookies collect data to enhance your experience and personalize the content and advertising you see.
Visit our Privacy Policy to learn more. By continuing to use the site, you agree to this use of cookies and data.
  • In Lithuania
  • List of Countries
  • For 7 days
  • Water Temperature
  • Satellite Maps
  • Weather Map
  • Weather Widgets
  • user-avatar
    Login

    Hourly Weather Lutovo

    Today, 25 March, Monday

    Time Temperature Precipitation Wind Pressure Humidity
    00:00 -4°C° 0 mm 4 mps 739 mmHg 91%
    01:00 -4°C° 0 mm 4 mps 739 mmHg 90%
    02:00 -4°C° 0 mm 4 mps 739 mmHg 89%
    03:00 -5°C° 0 mm 4 mps 739 mmHg 88%
    04:00 -5°C° 0 mm 4 mps 739 mmHg 88%
    05:00 -5°C° 0 mm 4 mps 739 mmHg 88%
    06:00 -7°C° 0 mm 4 mps 739 mmHg 88%
    07:00 -5°C° 0 mm 4 mps 739 mmHg 87%
    08:00 -4°C° 0 mm 4 mps 739 mmHg 87%
    09:00 -3°C° 0 mm 4 mps 739 mmHg 86%
    10:00 -3°C° 0 mm 4 mps 739 mmHg 87%
    11:00 -2°C° 0 mm 4 mps 740 mmHg 88%
    12:00 -1°C° 0 mm 4 mps 740 mmHg 89%
    13:00 -1°C° 0 mm 4 mps 740 mmHg 90%
    14:00 -1°C° 0 mm 4 mps 740 mmHg 90%
    15:00 0°C° 0 mm 4 mps 740 mmHg 91%
    16:00 0°C° 0 mm 3 mps 740 mmHg 91%
    17:00 0°C° 0 mm 3 mps 740 mmHg 91%
    18:00 -1°C° 0 mm 3 mps 740 mmHg 91%
    19:00 -1°C° 0 mm 3 mps 740 mmHg 89%
    20:00 -2°C° 0 mm 3 mps 740 mmHg 87%
    21:00 -2°C° 0 mm 3 mps 740 mmHg 85%
    22:00 -2°C° 0 mm 3 mps 740 mmHg 84%
    23:00 -2°C° 0 mm 3 mps 740 mmHg 83%

    Tomorrow, 26 March, Tuesday

    Time Temperature Precipitation Wind Pressure Humidity
    00:00 -4°C° 0 mm 3 mps 740 mmHg 82%
    01:00 -2°C° 0 mm 3 mps 739 mmHg 82%
    02:00 -2°C° 0 mm 3 mps 739 mmHg 82%
    03:00 -1°C° 0 mm 3 mps 739 mmHg 81%
    04:00 -1°C° 0.3 mm 3 mps 738 mmHg 84%
    05:00 -1°C° 0.3 mm 2 mps 738 mmHg 86%
    06:00 -1°C° 0.3 mm 2 mps 737 mmHg 88%
    07:00 +1°C° 1.5 mm 1 mps 737 mmHg 92%
    08:00 +1°C° 1.5 mm 1 mps 737 mmHg 95%
    09:00 0°C° 1.5 mm 0 mps 736 mmHg 98%
    10:00 +1°C° 0.6 mm 1 mps 736 mmHg 99%
    11:00 +2°C° 0.6 mm 1 mps 736 mmHg 99%
    12:00 +1°C° 0.6 mm 2 mps 736 mmHg 100%
    13:00 0°C° 0 mm 3 mps 736 mmHg 100%
    14:00 0°C° 0 mm 3 mps 736 mmHg 100%
    15:00 0°C° 0 mm 3 mps 736 mmHg 100%
    16:00 -1°C° 0 mm 4 mps 736 mmHg 99%
    17:00 -1°C° 0 mm 4 mps 736 mmHg 99%
    18:00 -1°C° 0 mm 4 mps 736 mmHg 99%
    19:00 -1°C° 0.5 mm 4 mps 737 mmHg 98%
    20:00 -1°C° 0.5 mm 4 mps 737 mmHg 96%
    21:00 -1°C° 0.5 mm 5 mps 737 mmHg 95%
    22:00 -1°C° 0.1 mm 5 mps 737 mmHg 93%
    23:00 -2°C° 0.1 mm 5 mps 737 mmHg 91%

    Day after tomorrow, 27 March, Wednesday

    Time Temperature Precipitation Wind Pressure Humidity
    00:00 -4°C° 0.1 mm 5 mps 737 mmHg 89%
    01:00 -4°C° 0 mm 4 mps 738 mmHg 89%
    02:00 -4°C° 0 mm 4 mps 738 mmHg 89%
    03:00 -5°C° 0 mm 4 mps 739 mmHg 88%
    04:00 -5°C° 0 mm 4 mps 739 mmHg 88%
    05:00 -6°C° 0 mm 3 mps 740 mmHg 88%
    06:00 -6°C° 0 mm 3 mps 740 mmHg 88%
    07:00 -5°C° 0 mm 3 mps 741 mmHg 88%
    08:00 -5°C° 0 mm 3 mps 741 mmHg 88%
    09:00 -4°C° 0 mm 3 mps 742 mmHg 88%
    10:00 -2°C° 0 mm 3 mps 742 mmHg 88%
    11:00 -2°C° 0 mm 3 mps 743 mmHg 89%
    12:00 -1°C° 0 mm 2 mps 743 mmHg 89%
    13:00 -1°C° 0 mm 2 mps 743 mmHg 90%
    14:00 +1°C° 0 mm 2 mps 743 mmHg 91%
    15:00 +1°C° 0 mm 2 mps 744 mmHg 91%
    16:00 -1°C° 0 mm 2 mps 744 mmHg 89%
    17:00 -1°C° 0 mm 2 mps 744 mmHg 86%
    18:00 -2°C° 0 mm 2 mps 744 mmHg 83%
    19:00 -2°C° 0 mm 2 mps 745 mmHg 82%
    20:00 -3°C° 0 mm 2 mps 745 mmHg 81%
    21:00 -4°C° 0 mm 2 mps 746 mmHg 80%
    22:00 -5°C° 0 mm 3 mps 746 mmHg 81%
    23:00 -5°C° 0 mm 3 mps 746 mmHg 83%

    28 March, Thursday

    Time Temperature Precipitation Wind Pressure Humidity
    00:00 -5°C° 0 mm 3 mps 747 mmHg 84%
    01:00 -6°C° 0 mm 3 mps 747 mmHg 86%
    02:00 -6°C° 0 mm 3 mps 747 mmHg 87%
    03:00 -7°C° 0 mm 4 mps 747 mmHg 88%
    04:00 -7°C° 0 mm 4 mps 748 mmHg 89%
    05:00 -7°C° 0 mm 4 mps 748 mmHg 90%
    06:00 -7°C° 0 mm 4 mps 748 mmHg 91%
    07:00 -7°C° 0 mm 4 mps 748 mmHg 89%
    08:00 -6°C° 0 mm 5 mps 749 mmHg 88%
    09:00 -6°C° 0 mm 5 mps 749 mmHg 87%
    10:00 -5°C° 0 mm 5 mps 750 mmHg 85%
    11:00 -5°C° 0 mm 5 mps 750 mmHg 83%
    12:00 -4°C° 0 mm 5 mps 750 mmHg 82%
    13:00 -4°C° 0 mm 5 mps 750 mmHg 81%
    14:00 -2°C° 0 mm 5 mps 750 mmHg 79%
    15:00 -2°C° 0 mm 5 mps 750 mmHg 78%
    16:00 -2°C° 0 mm 5 mps 750 mmHg 79%
    17:00 -2°C° 0 mm 4 mps 750 mmHg 79%
    18:00 -3°C° 0 mm 4 mps 750 mmHg 80%
    19:00 -3°C° 0 mm 4 mps 751 mmHg 80%
    20:00 -4°C° 0 mm 3 mps 751 mmHg 81%
    21:00 -5°C° 0 mm 3 mps 751 mmHg 81%
    22:00 -5°C° 0 mm 3 mps 751 mmHg 81%
    23:00 -5°C° 0 mm 3 mps 751 mmHg 82%

    29 March, Friday

    Time Temperature Precipitation Wind Pressure Humidity
    00:00 -5°C° 0 mm 3 mps 751 mmHg 82%
    01:00 -5°C° 0 mm 3 mps 750 mmHg 80%
    02:00 -5°C° 0 mm 4 mps 750 mmHg 78%
    03:00 -4°C° 0 mm 4 mps 749 mmHg 77%
    04:00 -5°C° 0 mm 5 mps 748 mmHg 78%
    05:00 -5°C° 0 mm 5 mps 748 mmHg 79%
    06:00 -5°C° 0 mm 6 mps 747 mmHg 80%
    07:00 -4°C° 0.3 mm 6 mps 746 mmHg 84%
    08:00 -3°C° 0.3 mm 7 mps 746 mmHg 87%
    09:00 -2°C° 0.3 mm 7 mps 745 mmHg 90%
    10:00 -2°C° 0 mm 7 mps 745 mmHg 92%
    11:00 -1°C° 0 mm 7 mps 745 mmHg 93%
    12:00 -1°C° 0 mm 7 mps 744 mmHg 95%
    13:00 0°C° 0 mm 7 mps 744 mmHg 93%
    14:00 +1°C° 0 mm 6 mps 744 mmHg 91%
    15:00 +1°C° 0 mm 6 mps 744 mmHg 88%
    16:00 +1°C° 0 mm 6 mps 744 mmHg 85%
    17:00 +1°C° 0 mm 5 mps 745 mmHg 82%
    18:00 +1°C° 0 mm 5 mps 745 mmHg 79%
    19:00 0°C° 0 mm 4 mps 746 mmHg 82%
    20:00 -1°C° 0 mm 4 mps 746 mmHg 84%
    21:00 0°C° 0 mm 3 mps 747 mmHg 86%
    22:00 -1°C° 0 mm 3 mps 747 mmHg 87%
    23:00 -1°C° 0 mm 3 mps 747 mmHg 89%

    30 March, Saturday

    Time Temperature Precipitation Wind Pressure Humidity
    00:00 -1°C° 0 mm 2 mps 747 mmHg 90%
    01:00 -1°C° 0 mm 2 mps 747 mmHg 90%
    02:00 -1°C° 0 mm 2 mps 747 mmHg 90%
    03:00 +1°C° 0 mm 1 mps 747 mmHg 90%
    04:00 +1°C° 0 mm 1 mps 747 mmHg 91%
    05:00 +1°C° 0 mm 1 mps 747 mmHg 92%
    06:00 0°C° 0 mm 1 mps 747 mmHg 92%
    07:00 -1°C° 0 mm 2 mps 748 mmHg 93%
    08:00 +1°C° 0 mm 2 mps 748 mmHg 94%
    09:00 +2°C° 0 mm 2 mps 748 mmHg 95%
    10:00 +2°C° 0 mm 2 mps 748 mmHg 95%
    11:00 +3°C° 0 mm 2 mps 748 mmHg 96%
    12:00 +3°C° 0 mm 2 mps 748 mmHg 96%
    13:00 +2°C° 0 mm 3 mps 747 mmHg 97%
    14:00 +2°C° 0 mm 3 mps 747 mmHg 98%
    15:00 +2°C° 0 mm 3 mps 747 mmHg 99%
    16:00 +2°C° 0 mm 3 mps 747 mmHg 98%
    17:00 +2°C° 0 mm 3 mps 746 mmHg 98%
    18:00 +2°C° 0 mm 3 mps 746 mmHg 98%
    19:00 +2°C° 0 mm 3 mps 746 mmHg 98%
    20:00 +1°C° 0 mm 3 mps 746 mmHg 98%
    21:00 +1°C° 0 mm 3 mps 746 mmHg 98%
    22:00 +2°C° 0 mm 3 mps 746 mmHg 96%
    23:00 +2°C° 0 mm 3 mps 746 mmHg 95%
    Show more